Location: Allos
(44.2333°N, 6.6333°E)
Time: 12:26:41
(UTC+00:00)

CZ-2D R/B - Pass Details

Date: 01 December 2020
Orbit: 520 x 538 km, 97.4° (Epoch: 25 January)

Event Time Altitude Azimuth Distance (km) Brightness Sun altitude
Rises 17:48:27 0° 166° (SSE) 2,645 6.8 -19.6°
Reaches altitude 10° 17:50:32 10° 166° (SSE) 1,764 5.9 -19.9°
Maximum altitude 17:54:21 88° 75° (ENE) 536 3.1 -20.6°
Drops below altitude 10° 17:58:13 10° 348° (NNW) 1,790 5.9 -21.3°
Sets 18:00:21 0° 348° (NNW) 2,689 6.9 -21.7°
